STARLINK-32336 (61004 NORAD) Tracking and Keplerian Element Data

This shows tracking and keplerian element data for the satellite.

Feedback or suggestion? Click here.




ElementValue
Catalog61004
NameSTARLINK-32336
Epoch Orbit699
Epoch Day286.44216586
Epoch Year2024
RAAN294.9898
Inclination53.1617
Eccentricity0.0001075
Argument of Perigee90.1693
Mean Anonmoly269.9435
Mean Motion15.39606143
Decay Rate1.42E-06
L11 61004U 24158Q 24286.44216586 .00000142 00000+0 13544-4 0 9996
L22 61004 53.1617 294.9898 0001075 90.1693 269.9435 15.39606143 6996



Live tracking and technical data element details for STARLINK-32336 (NORAD 61004). STARLINK-32336 can be tracked NOW for your location showing map with azimuth and elevation plus other details from your city location.







IsCatalogInMostPopularTable: catalog: 61004, numindb: 9
Update: records affected: 1



GetName: 61004 STARLINK-32336

Hit Count: updated at: Tue, 03 Dec 2024 02:53:46 GMT